Weather History for Milford, UT

Change the Weather History Date:

Tuesday, November 20, 2012

  Actual Average Record
Temperature  
Mean Temperature 44 °F -  
Max Temperature 62 °F 47 °F 66 °F (2006)
Min Temperature 27 °F 22 °F 12 °F (2000)
Degree Days  
Heating Degree Days 20    
Moisture  
Dew Point 28 °F    
Average Humidity 54    
Maximum Humidity 89    
Minimum Humidity 16    
Precipitation  
Precipitation 0.00 in - - ()
Sea Level Pressure  
Sea Level Pressure 30.15 in    
Wind  
Wind Speed 9 mph (SSW)    
Max Wind Speed 21 mph    
Max Gust Speed 25 mph    
Visibility 10 miles    
Events      
Averages and records for this station are not official NWS values.
T = Trace of Precipitation, MM = Missing Value Source: NWS Daily Summary

Daily Weather History Graph

Daily Weather History Graph

Search for Another Location

Airport:

Trip Planner

Search our weather history database for the weather conditions in past years. The results will help you decide how hot, cold, wet, or windy it might be!

Date:

Astronomy

Nov. 20, 2012 Rise Set
Actual Time 7:19 AM MST 5:15 PM MST
Civil Twilight 6:51 AM MST 5:44 PM MST
Nautical Twilight 6:18 AM MST 6:16 PM MST
Astronomical Twilight 5:47 AM MST 6:48 PM MST
Moon 12:58 PM MST No Moon Set
Length of Visible Light 10h 53m
Length of Day
9h 55m
First Quarter, 52% of the Moon is Illuminated
Nov 20
First Quarter
Nov 28
Full
Dec 6
Last Quarter
Dec 13
New
Dec 19
First Quarter

Hourly Weather History & Observations

Time (MST) Temp. Windchill Dew Point Humidity Pressure Visibility Wind Dir Wind Speed Gust Speed Precip Events Conditions
12:52 AM 37.9 °F 30.5 °F 30.9 °F 76% 30.22 in 10.0 mi SW 11.5 mph - N/A   Clear
1:52 AM 35.1 °F - 28.9 °F 78% 30.22 in 10.0 mi Calm Calm - N/A   Clear
2:52 AM 34.0 °F 29.8 °F 28.0 °F 79% 30.23 in 10.0 mi SE 4.6 mph - N/A   Clear
3:52 AM 32.0 °F 28.7 °F 28.0 °F 85% 30.23 in 10.0 mi SSW 3.5 mph - N/A   Clear
4:52 AM 32.0 °F 24.8 °F 28.0 °F 85% 30.23 in 10.0 mi South 8.1 mph - N/A   Clear
5:52 AM 30.9 °F 23.5 °F 27.0 °F 85% 30.25 in 10.0 mi SSE 8.1 mph - N/A   Clear
6:52 AM 28.9 °F 21.9 °F 26.1 °F 89% 30.27 in 10.0 mi South 6.9 mph - N/A   Clear
7:52 AM 30.0 °F 22.4 °F 27.0 °F 88% 30.27 in 10.0 mi South 8.1 mph - N/A   Clear
8:52 AM 37.0 °F 29.3 °F 30.9 °F 79% 30.24 in 10.0 mi South 11.5 mph - N/A   Clear
9:52 AM 48.9 °F - 32.0 °F 52% 30.20 in 10.0 mi SSW 11.5 mph - N/A   Clear
10:52 AM 51.1 °F - 30.9 °F 46% 30.19 in 10.0 mi SSW 15.0 mph - N/A   Clear
11:52 AM 55.9 °F - 30.9 °F 39% 30.13 in 10.0 mi SSW 17.3 mph - N/A   Clear
12:52 PM 59.0 °F - 28.9 °F 32% 30.09 in 10.0 mi SSW 17.3 mph - N/A   Clear
1:52 PM 62.1 °F - 27.0 °F 26% 30.06 in 10.0 mi SSW 18.4 mph 25.3 mph N/A   Clear
2:52 PM 62.1 °F - 27.0 °F 26% 30.04 in 10.0 mi SSW 20.7 mph - N/A   Clear
3:52 PM 62.1 °F - 26.1 °F 25% 30.05 in 10.0 mi SSW 16.1 mph - N/A   Clear
4:52 PM 57.9 °F - 26.1 °F 30% 30.06 in 10.0 mi SW 5.8 mph - N/A   Clear
5:52 PM 51.1 °F - 23.0 °F 33% 30.09 in 10.0 mi South 6.9 mph - N/A   Clear
6:52 PM 50.0 °F - 24.1 °F 36% 30.11 in 10.0 mi South 12.7 mph - N/A   Clear
7:52 PM 45.0 °F 42.6 °F 25.0 °F 46% 30.13 in 10.0 mi South 4.6 mph - N/A   Clear
8:52 PM 43.0 °F 36.0 °F 26.1 °F 51% 30.11 in 10.0 mi WSW 13.8 mph - N/A   Clear
9:52 PM 42.1 °F 34.9 °F 27.0 °F 55% 30.08 in 10.0 mi SSW 13.8 mph - N/A   Clear
10:52 PM 41.0 °F 33.5 °F 27.0 °F 57% 30.08 in 10.0 mi SSW 13.8 mph - N/A   Clear
11:52 PM 41.0 °F 33.9 °F 27.0 °F 57% 30.06 in 10.0 mi SSW 12.7 mph - N/A   Clear